{"data":{"norad_id":67989,"epoch":"2026-05-24T22:46:56.284320Z","epoch_age_seconds":75320,"freshness":"FRESH","line1":"1 67989U 26039D   26144.94926255  .00011920  00000+0  44182-3 0  9992","line2":"2 67989  43.0010 338.4905 0001258 275.3653  84.7055 15.27591556 13366","mean_motion":15.27591556,"eccentricity":0.0001258,"inclination_deg":43.001,"raan_deg":338.4905,"arg_perigee_deg":275.3653,"mean_anomaly_deg":84.7055,"bstar":0.00044182,"rev_number":1336,"period_min":94.266035599898,"perigee_km":482.15136057867,"apogee_km":483.87762629442,"semimajor_km":6861.1514934365,"source":"CELESTRAK","updated_at":"2026-05-25T13:38:21.779256Z"}}